Weather History for KVTA - November, 2012

Change the Weather History Date:

Friday, November 23, 2012

  Actual Average Record
Temperature  
Mean Temperature 44 °F -  
Max Temperature 55 °F 49 °F 71 °F (1999)
Min Temperature 32 °F 29 °F 10 °F (1937)
Degree Days  
Heating Degree Days 22    
Moisture  
Dew Point 30 °F    
Average Humidity 62    
Maximum Humidity 83    
Minimum Humidity 54    
Precipitation  
Precipitation 0.00 in - - ()
Sea Level Pressure  
Sea Level Pressure 29.99 in    
Wind  
Wind Speed 11 mph (West)    
Max Wind Speed 24 mph    
Max Gust Speed 36 mph    
Visibility 10 miles    
Events      
Averages and records for this station are not official NWS values.
T = Trace of Precipitation, MM = Missing Value Source: NWS Daily Summary

Daily Weather History Graph

Daily Weather History Graph

Search for Another Location

Airport or City:

Trip Planner

Search our weather history database for the weather conditions in past years. The results will help you decide how hot, cold, wet, or windy it might be!

Date:

Astronomy

Nov. 23, 2012 Rise Set
Actual Time 7:24 AM EST 5:07 PM EST
Civil Twilight 6:55 AM EST 5:37 PM EST
Nautical Twilight 6:21 AM EST 6:10 PM EST
Astronomical Twilight 5:49 AM EST 6:43 PM EST
Moon 2:21 PM EST (11/23) 2:42 AM EST (11/23)
Length of Visible Light 10h 42m
Length of Day
9h 43m
Waxing Gibbous, 79% of the Moon is Illuminated
Nov 23
Waxing Gibbous
Nov 28
Full
Dec 6
Last Quarter
Dec 13
New
Dec 20
First Quarter

Hourly Weather History & Observations

Time (EST) Temp. Windchill Dew Point Humidity Pressure Visibility Wind Dir Wind Speed Gust Speed Precip Events Conditions
12:54 AM 37.9 °F - 33.1 °F 83% 30.00 in 10.0 mi Calm Calm - N/A   Clear
1:54 AM 39.9 °F - 34.0 °F 79% 29.97 in 10.0 mi Calm Calm - N/A   Clear
2:54 AM 48.9 °F - 37.9 °F 66% 29.94 in 10.0 mi SSW 5.8 mph - N/A   Clear
3:54 AM 52.0 °F - 39.0 °F 61% 29.92 in 10.0 mi SSW 9.2 mph - N/A   Mostly Cloudy
4:54 AM 55.9 °F - 41.0 °F 57% 29.91 in 10.0 mi SW 12.7 mph 19.6 mph N/A   Overcast
5:54 AM 55.9 °F - 41.0 °F 57% 29.89 in 10.0 mi SW 12.7 mph - N/A   Overcast
6:54 AM 55.0 °F - 42.1 °F 62% 29.88 in 10.0 mi SW 13.8 mph - N/A   Overcast
7:54 AM 54.0 °F - 43.0 °F 66% 29.90 in 10.0 mi SW 9.2 mph - 0.00 in   Overcast
8:54 AM 53.1 °F - 45.0 °F 74% 29.90 in 7.0 mi SW 13.8 mph 21.9 mph N/A   Overcast
9:36 AM 53.6 °F - 44.6 °F 72% 29.89 in 10.0 mi West 11.5 mph 17.3 mph 0.00 in   Overcast
9:54 AM 53.1 °F - 37.0 °F 55% 29.90 in 10.0 mi WSW 15.0 mph - 0.00 in   Overcast
10:54 AM 46.9 °F - 33.1 °F 59% 29.92 in 10.0 mi West 17.3 mph 25.3 mph N/A   Overcast
11:54 AM 48.9 °F - 35.1 °F 59% 29.92 in 10.0 mi West 20.7 mph 24.2 mph N/A   Clear
1:54 PM 46.9 °F - 30.9 °F 54% 29.91 in 10.0 mi West 15.0 mph 26.5 mph N/A   Overcast
2:54 PM 43.0 °F 33.5 °F 28.0 °F 56% 29.94 in 10.0 mi West 24.2 mph 35.7 mph N/A   Overcast
3:54 PM 39.0 °F 28.8 °F 26.1 °F 60% 29.99 in 10.0 mi West 21.9 mph 29.9 mph N/A   Overcast
4:54 PM 37.9 °F 27.9 °F 25.0 °F 60% 30.01 in 10.0 mi WNW 19.6 mph 29.9 mph N/A   Overcast
5:15 PM 37.4 °F 27.5 °F 26.6 °F 65% 30.02 in 10.0 mi WNW 18.4 mph 31.1 mph N/A   Overcast
5:46 PM 35.6 °F 24.2 °F 23.0 °F 60% 30.04 in 10.0 mi West 21.9 mph 33.4 mph N/A   Overcast
5:54 PM 35.1 °F 24.8 °F 21.9 °F 59% 30.06 in 10.0 mi WNW 17.3 mph 33.4 mph N/A   Overcast
6:10 PM 33.8 °F 22.8 °F 23.0 °F 65% 30.06 in 10.0 mi West 18.4 mph 32.2 mph N/A   Overcast
6:46 PM 33.8 °F 22.2 °F 19.4 °F 56% 30.08 in 10.0 mi West 20.7 mph 28.8 mph N/A   Overcast
6:54 PM 33.1 °F 22.2 °F 19.9 °F 59% 30.10 in 10.0 mi WNW 17.3 mph 28.8 mph N/A   Overcast
7:54 PM 33.1 °F 24.4 °F 19.9 °F 59% 30.11 in 10.0 mi West 11.5 mph 21.9 mph N/A   Overcast
8:54 PM 33.1 °F 23.9 °F 19.0 °F 56% 30.12 in 10.0 mi West 12.7 mph - N/A   Overcast
9:54 PM 32.0 °F 22.5 °F 19.9 °F 61% 30.12 in 10.0 mi West 12.7 mph - N/A   Overcast
10:54 PM 32.0 °F 21.2 °F 19.9 °F 61% 30.11 in 10.0 mi West 16.1 mph - N/A   Overcast
11:54 PM 32.0 °F 24.2 °F 19.9 °F 61% 30.10 in 10.0 mi West 9.2 mph 18.4 mph N/A   Overcast